TimePST,TemperatureF,Dew PointF,Humidity,Sea Level PressureIn,VisibilityMPH,Wind Direction,Wind SpeedMPH,Gust SpeedMPH,PrecipitationIn,Events,Conditions,WindDirDegrees,DateUTC
12:53 AM,43.0,39.9,89,30.03,10.0,SSE,11.5,-,N/A,,Overcast,160,2012-12-11 08:53:00
1:18 AM,42.8,39.2,87,29.99,10.0,SSE,15.0,19.6,N/A,,Overcast,160,2012-12-11 09:18:00
1:41 AM,42.8,39.2,87,29.98,10.0,South,12.7,19.6,N/A,,Overcast,170,2012-12-11 09:41:00
1:48 AM,42.8,39.2,87,29.98,10.0,South,13.8,-,N/A,,Overcast,170,2012-12-11 09:48:00
1:53 AM,43.0,39.0,86,29.99,10.0,South,13.8,-,N/A,,Overcast,180,2012-12-11 09:53:00
2:26 AM,42.8,39.2,87,29.95,10.0,SSE,11.5,-,N/A,,Overcast,160,2012-12-11 10:26:00
2:53 AM,43.0,39.0,86,29.96,10.0,South,10.4,19.6,N/A,,Overcast,170,2012-12-11 10:53:00
3:21 AM,42.8,37.4,81,29.92,10.0,SSE,13.8,20.7,N/A,,Overcast,150,2012-12-11 11:21:00
3:36 AM,42.8,37.4,81,29.91,10.0,SSE,13.8,-,N/A,,Mostly Cloudy,150,2012-12-11 11:36:00
3:44 AM,42.8,39.2,87,29.91,10.0,SSE,12.7,-,N/A,,Scattered Clouds,150,2012-12-11 11:44:00
3:53 AM,42.1,37.9,85,29.91,10.0,SSE,13.8,20.7,N/A,,Scattered Clouds,150,2012-12-11 11:53:00
4:53 AM,42.1,39.0,89,29.87,10.0,SSE,11.5,-,N/A,,Mostly Cloudy,150,2012-12-11 12:53:00
5:12 AM,42.8,39.2,87,29.85,10.0,SSE,10.4,-,N/A,,Overcast,160,2012-12-11 13:12:00
5:53 AM,42.1,37.9,85,29.84,10.0,South,12.7,-,N/A,,Overcast,170,2012-12-11 13:53:00
6:53 AM,44.1,39.0,82,29.80,10.0,South,15.0,-,N/A,,Overcast,180,2012-12-11 14:53:00
7:53 AM,43.0,39.0,86,29.76,10.0,SSE,13.8,23.0,N/A,,Overcast,160,2012-12-11 15:53:00
8:53 AM,43.0,39.0,86,29.75,10.0,SSE,12.7,-,N/A,,Overcast,160,2012-12-11 16:53:00
9:53 AM,44.1,39.0,82,29.71,10.0,South,12.7,21.9,0.00,Rain,Light Rain,170,2012-12-11 17:53:00
10:53 AM,44.1,39.0,82,29.68,10.0,South,18.4,25.3,0.00,,Overcast,170,2012-12-11 18:53:00
11:30 AM,44.6,39.2,81,29.64,10.0,South,15.0,26.5,N/A,,Overcast,170,2012-12-11 19:30:00
11:53 AM,44.1,39.9,85,29.63,10.0,South,16.1,24.2,0.00,Rain,Light Rain,170,2012-12-11 19:53:00
12:53 PM,45.0,39.9,82,29.60,10.0,South,17.3,24.2,0.00,,Overcast,180,2012-12-11 20:53:00
1:53 PM,45.0,39.9,82,29.59,10.0,South,13.8,-,0.00,Rain,Light Rain,190,2012-12-11 21:53:00
1:56 PM,44.6,39.2,81,29.58,10.0,South,16.1,-,0.00,Rain,Light Rain,190,2012-12-11 21:56:00
2:53 PM,45.0,39.9,82,29.55,10.0,South,16.1,24.2,0.00,,Overcast,170,2012-12-11 22:53:00
3:39 PM,44.6,39.2,81,29.55,10.0,South,13.8,19.6,N/A,,Overcast,180,2012-12-11 23:39:00
3:53 PM,44.1,39.9,85,29.56,10.0,South,11.5,-,N/A,,Overcast,170,2012-12-11 23:53:00
4:53 PM,43.0,39.0,86,29.56,5.0,SSE,12.7,-,0.01,Rain,Light Rain,150,2012-12-12 00:53:00
5:33 PM,42.8,39.2,87,29.56,3.0,SSE,10.4,-,0.01,Rain,Light Rain,150,2012-12-12 01:33:00
5:53 PM,42.1,39.9,92,29.56,3.0,SSE,8.1,-,0.02,Rain,Light Rain,150,2012-12-12 01:53:00
6:53 PM,42.1,39.9,92,29.56,4.0,SSE,8.1,-,0.00,,Overcast,160,2012-12-12 02:53:00
7:53 PM,43.0,39.9,89,29.56,10.0,South,10.4,-,N/A,,Overcast,190,2012-12-12 03:53:00
8:53 PM,43.0,41.0,93,29.57,6.0,SSW,5.8,-,0.01,Rain,Light Rain,210,2012-12-12 04:53:00
9:53 PM,43.0,41.0,93,29.59,7.0,SSW,6.9,-,0.03,Rain,Light Rain,210,2012-12-12 05:53:00
10:25 PM,42.8,41.0,93,29.58,5.0,West,5.8,-,0.02,Rain,Light Rain,260,2012-12-12 06:25:00
10:53 PM,43.0,41.0,93,29.60,9.0,SW,5.8,-,0.02,,Overcast,230,2012-12-12 06:53:00
11:03 PM,42.8,41.0,93,29.59,8.0,WSW,5.8,-,0.00,Rain,Light Rain,240,2012-12-12 07:03:00
11:16 PM,42.8,41.0,93,29.59,8.0,SW,5.8,-,0.01,Rain,Light Rain,220,2012-12-12 07:16:00
11:29 PM,42.8,41.0,93,29.59,6.0,SW,5.8,-,0.02,Rain,Light Rain,220,2012-12-12 07:29:00
11:53 PM,43.0,41.0,93,29.61,6.0,SW,3.5,-,0.04,Rain,Light Rain,230,2012-12-12 07:53:00